Volver al catálogo

STARLINK-2568

ActivoComunicacionesVLEO
NORAD 48406·PAYLOAD·🇺🇸 United States

Lanzado May 4, 2021 desde Cape Canaveral Space Force Station

Loading…

Próximos Pases (próximas 24 horas)

TLE

ActualizadoSource: CelesTrak SupGP

Época: Sep 14, 2026, 14:10 UTC

1 48406C 21038BF  26257.59076389  .00060636  00000+0  18280-2 0  2573
2 48406  53.1577 176.5369 0002819 101.8282 304.0693 15.33721129    11

Sigue STARLINK-2568 en tiempo real con AllMySat

Download on the App Store